Skip Page Navigation
NASA JPL Caltech
NASA Logo - Jet Propulsion Laboratory + View the NASA Portal
+ Near-Earth Object (NEO) Program
Search JPL
JPL Home Earth Solar System Stars & Galaxies Technology
JPL Solar System Dynamics
BODIES ORBITS EPHEMERIDES TOOLS PHYSICAL DATA DISCOVERY FAQ SITE MAP
JPL Small-Body Database Browser
Search: [ help ]  
337075 (1998 QC1)
Classification: Apollo [NEO, PHA]          SPK-ID: 2337075
Ephemeris | Orbit Diagram | Orbital Elements | Physical Parameters | Discovery Circumstances | Close-Approach Data ]

[ hide orbit diagram ]
Orbit Diagram
Note: Make sure you have Java enabled on your browser to see the applet. This applet is provided as a 3D orbit visualization tool. The applet was implemented using 2-body methods, and hence should not be used for determining accurate long-term trajectories (over several years or decades) or planetary encounter circumstances. For accurate long-term ephemerides, please instead use our Horizons system.
Orbit Viewer

Additional Notes: the orbits shown in the applet are color coded. The planets are white lines, and the asteroid/comet is a blue line. The bright white line indicates the portion of the orbit that is above the ecliptic plane, and the darker portion is below the ecliptic plane. Likewise for the asteroid/comet orbit, the light blue indicates the portion above the ecliptic plane, and the dark blue the portion below the ecliptic plane.

Orbit Viewer applet originally written and kindly provided by Osamu Ajiki (AstroArts), and further modified by Ron Baalke (JPL).


Orbital Elements at Epoch 2456400.5 (2013-Apr-18.0) TDB
Reference: JPL 54 (heliocentric ecliptic J2000)
 Element Value Uncertainty (1-sigma)   Units 
e .591088578769809 8.7565e-08  
a 1.982592913482864 6.5706e-09 AU
q .8107048859731831 1.7217e-07 AU
i 9.638352381884719 2.5101e-05 deg
node 308.572763253901 9.2751e-05 deg
peri 115.2095718886037 9.436e-05 deg
M 59.70221514809349 7.3182e-06 deg
tp 2456231.402691300366
(2012-Oct-30.90269130)
2.1089e-05 JED
period 1019.644429957342
2.79
5.0688e-06
1.388e-08
d
yr
n .3530642539920126 1.7551e-09 deg/d
Q 3.154480940992546 1.0454e-08 AU
  Orbit Determination Parameters
   # obs. used (total)      181  
   data-arc span      5347 days (14.64 yr)  
   first obs. used      1998-08-17  
   last obs. used      2013-04-07  
   planetary ephem.      DE405  
   SB-pert. ephem.      SB405-CPV-2  
   condition code      0  
   fit RMS      .45662  
   data source      ORB  
   producer      Otto Matic  
   solution date      2013-Apr-29 15:37:19  

Additional Information
 Earth MOID = .0170079 AU 
 T_jup = 3.606 
[ show covariance matrix ]

Ephemeris | Orbit Diagram | Orbital Elements | Physical Parameters | Discovery Circumstances | Close-Approach Data ]

Physical Parameter Table
Parameter Symbol Value Units Sigma Reference Notes
absolute magnitude H 19.694 mag .63 54 autocmod 2.5c

337075 (1998 QC1)          Discovered 1998-Aug-17 by LINEAR at Socorro (704)
Reference: 20121029/Numbers.arcLast Updated: 2012-11-08

[ show close-approach data ]
Ephemeris | Orbit Diagram | Orbital Elements | Physical Parameters | Discovery Circumstances | Close-Approach Data ]
ABOUT SSD CREDITS/AWARDS PRIVACY/COPYRIGHT GLOSSARY LINKS
FirstGov 2013-May-19 16:03 UT
(server date/time)  
NASA Home Page
Site Manager:   Donald K. Yeomans
Webmaster  Alan B. Chamberlin